This is the latest recevied weather packets stored in our database for station/object KC1IUC-13. If no packets are shown the sender has not sent any weather packets the latest 10 day(s).
| Time | Temp. | Humidity | Pressure | Rain* | Wind** | Luminosity | Snow |
|---|---|---|---|---|---|---|---|
| 1777920303 | 23.33° C | 37% | 1005.6 hPa | 0 mm | - | 404 W/m² | - |
| 1777919763 | 22.78° C | 37% | 1005.2 hPa | 0 mm | - | 387 W/m² | - |
| 1777919223 | 23.33° C | 38% | 1005.9 hPa | 0 mm | - | 675 W/m² | - |
| 1777918683 | 22.78° C | 38% | 1005.6 hPa | 0 mm | - | 469 W/m² | - |
| 1777918143 | 22.78° C | 38% | 1005.9 hPa | 0 mm | - | 306 W/m² | - |
| 1777917603 | 23.33° C | 38% | 1005.9 hPa | 0 mm | - | 530 W/m² | - |
| 1777917243 | 23.33° C | 39% | 1005.9 hPa | 0 mm | - | 667 W/m² | - |
| 1777916703 | 22.78° C | 39% | 1005.9 hPa | 0 mm | - | 790 W/m² | - |
| 1777916163 | 22.22° C | 39% | 1006.3 hPa | 0 mm | - | 508 W/m² | - |
| 1777915623 | 22.22° C | 39% | 1006.3 hPa | 0 mm | - | 233 W/m² | - |
| 1777915083 | 22.22° C | 40% | 1006.3 hPa | 0 mm | - | 209 W/m² | - |
| 1777914544 | 22.22° C | 40% | 1006.6 hPa | 0 mm | - | 364 W/m² | - |
| 1777914004 | 22.22° C | 41% | 1006.3 hPa | 0 mm | - | 365 W/m² | - |
| 1777913644 | 22.22° C | 41% | 1006.3 hPa | 0 mm | - | 152 W/m² | - |
| 1777913104 | 21.67° C | 42% | 1006.6 hPa | 0 mm | - | 478 W/m² | - |
| 1777912564 | 22.22° C | 42% | 1006.6 hPa | 0 mm | - | 324 W/m² | - |
| 1777912024 | 21.67° C | 42% | 1006.6 hPa | 0 mm | - | 629 W/m² | - |
| 1777911484 | 21.67° C | 43% | 1007 hPa | 0 mm | - | 621 W/m² | - |
| 1777910944 | 21.11° C | 44% | 1006.6 hPa | 0 mm | - | 377 W/m² | - |
| 1777910404 | 20.56° C | 44% | 1006.6 hPa | 0 mm | - | 729 W/m² | - |
| 1777910044 | 20.56° C | 44% | 1007.3 hPa | 0 mm | - | 649 W/m² | - |
| 1777909504 | 20° C | 45% | 1007.3 hPa | 0 mm | - | 652 W/m² | - |
| 1777908964 | 20° C | 45% | 1007.6 hPa | 0 mm | - | 127 W/m² | - |
| 1777908424 | 20° C | 47% | 1007.6 hPa | 0 mm | - | 56 W/m² | - |
| 1777907884 | 19.44° C | 46% | 1007.6 hPa | 0 mm | - | 62 W/m² | - |
* Rain latest hour (hover to see other rain measurements)
** Current wind speed in m/s (hover to see current wind gust speed)